GFSNIL_sfc_30mbdewp_003.txt.gz
Dewpoint
22 19 17 16 14 14 13 13 14 14 13 13 12 13 13 13 15 15 15 15 16 16
17 15 14 14 14 13 12 12 12 12 11 10 10 11 11 11 12 14 15 15 16 17
12 12 11 10 9 9 10 10 10 9 9 10 10 10 11 12 13 13 13 13 13 13
10 9 9 8 8 8 8 8 9 9 10 10 11 11 11 12 12 12 12 12 13 15
10 8 8 8 8 9 8 9 9 10 11 11 12 12 13 13 12 13 12 14 17 18
10 9 9 10 10 10 10 10 11 12 12 12 13 14 14 14 13 13 15 18 20 21
10 10 10 11 11 11 11 11 12 12 13 13 14 15 15 14 14 16 18 20 22 20
12 11 11 12 12 12 12 12 12 12 12 13 15 12 15 15 17 18 19 20 20 21
11 11 12 11 11 10 10 10 10 11 12 13 12 15 15 16 16 16 18 20 19 21
11 11 11 10 9 9 8 9 11 12 12 12 11 14 14 14 13 16 19 19 20 20
10 9 9 8 8 8 9 11 13 13 12 11 10 13 12 12 14 16 18 20 20 20
8 8 8 7 7 8 11 14 14 12 11 10 9 11 13 15 16 17 17 19 20 23
9 8 7 7 7 11 14 13 13 11 10 10 6 13 16 19 18 18 19 20 22 23
8 7 6 8 11 13 13 13 11 9 8 7 10 15 18 19 19 19 20 22 23 24

GFSNIL_sfc_30mbdewp_006.txt.gz
Dewpoint
22 20 18 16 15 14 13 14 14 13 12 11 11 11 12 13 13 14 14 14 14 16
18 16 15 14 14 13 13 12 11 11 10 10 10 11 11 12 12 14 14 14 15 15
14 13 12 11 10 9 10 9 9 9 10 10 11 12 12 13 14 13 14 14 13 14
11 10 9 8 8 8 8 9 9 9 10 11 12 12 12 13 14 13 14 14 14 17
10 9 8 8 9 9 8 9 10 11 12 12 13 13 13 14 14 14 14 14 17 19
9 9 9 9 10 10 10 10 11 12 12 13 13 14 15 15 15 15 15 17 19 21
10 10 10 11 11 11 12 11 12 12 12 13 14 15 15 16 16 17 17 19 21 21
11 11 12 12 12 12 11 11 11 11 13 14 14 11 18 18 17 17 17 18 20 20
12 12 12 11 10 9 9 9 11 13 13 13 12 15 17 17 16 14 14 16 19 20
12 11 10 9 9 8 8 11 13 13 13 11 11 15 16 18 17 15 16 18 19 19
11 9 9 8 7 7 9 12 13 13 12 11 10 14 17 20 19 18 18 18 19 20
9 8 8 6 6 8 11 13 13 13 11 10 10 13 17 20 19 19 19 19 20 21
9 8 6 6 8 11 13 13 12 11 10 11 8 12 18 20 19 19 19 20 22 24
7 6 6 9 12 13 13 12 11 10 10 9 11 15 18 20 20 21 21 22 25 25

GFSNIL_sfc_30mbdewp_009.txt.gz
Dewpoint
28 26 23 21 18 15 14 14 14 12 11 10 11 12 12 13 13 14 14 14 14 15
21 19 17 15 14 13 13 12 11 10 9 10 11 12 12 13 13 14 14 14 15 15
16 15 14 13 11 11 9 9 9 9 10 11 12 13 13 13 15 14 15 15 14 14
12 11 10 9 8 8 8 9 9 10 11 12 12 13 13 14 14 14 15 15 15 16
10 9 8 8 8 9 8 10 11 12 12 12 13 14 14 14 15 15 15 16 16 18
9 9 9 9 10 10 10 11 12 12 12 13 14 14 14 15 16 17 17 17 18 19
10 10 10 11 11 11 11 11 11 12 13 14 14 13 14 18 18 18 17 17 18 19
11 11 12 12 11 11 11 10 12 13 13 14 13 11 19 20 18 17 16 16 18 19
12 12 12 11 10 9 9 11 13 13 13 12 11 16 19 21 21 18 17 18 18 19
12 12 10 9 8 7 9 12 13 13 12 11 11 17 19 20 21 19 19 19 19 19
11 10 9 7 6 8 11 12 13 12 11 11 10 17 18 20 20 19 19 19 19 20
9 8 7 6 8 10 12 13 12 12 11 10 13 16 19 21 20 19 19 20 20 21
9 7 6 8 10 12 13 12 12 11 12 13 12 15 19 20 20 20 20 22 22 25
7 6 9 11 12 12 12 12 12 13 13 13 14 17 19 21 20 20 21 20 21 22

GFSNIL_sfc_30mbdewp_015.txt.gz
Dewpoint
25 24 22 22 19 18 17 15 14 13 13 13 14 15 15 17 16 17 17 17 17 16
25 24 23 21 19 17 15 13 12 12 13 14 15 15 15 14 14 16 17 18 18 18
24 23 20 18 16 14 12 11 12 13 13 14 14 15 15 14 16 16 17 17 18 18
20 18 15 14 12 11 10 11 12 13 13 14 14 14 13 14 16 18 18 19 18 18
15 13 12 10 10 10 11 12 12 13 14 13 14 13 12 15 18 19 19 18 18 18
12 11 10 10 11 11 12 12 13 14 13 13 13 12 12 16 19 20 20 19 18 17
11 11 11 12 12 12 12 13 14 14 13 13 12 11 13 20 21 21 20 20 19 18
12 13 13 13 12 12 14 14 14 13 13 13 11 10 20 23 22 22 20 20 19 19
14 14 13 12 11 14 14 14 13 12 13 13 11 18 22 22 22 22 20 19 19 20
14 12 11 10 11 13 13 13 12 12 12 12 12 20 21 22 22 21 20 20 20 20
13 10 9 9 11 12 13 12 11 11 12 13 13 20 20 22 22 21 21 21 21 21
10 8 8 10 11 12 12 11 11 12 13 13 16 19 21 22 21 21 20 20 21 21
8 7 9 11 12 12 12 11 11 13 15 16 15 19 21 21 20 20 19 21 20 23
8 10 11 12 12 12 12 12 13 15 15 16 17 18 20 21 20 20 21 20 19 18

GFSNIL_sfc_30mbdewp_018.txt.gz
Dewpoint
33 30 28 26 24 22 21 19 17 16 15 14 15 15 16 17 16 17 16 18 18 16
32 29 27 25 24 22 20 17 15 14 14 14 15 15 15 13 14 15 16 18 19 18
27 26 25 24 22 20 16 14 14 14 14 14 14 15 15 14 15 15 17 17 18 18
25 24 22 21 19 17 14 14 13 13 13 13 14 13 13 14 15 17 18 18 18 18
23 21 20 17 15 14 13 12 12 12 12 13 13 12 11 13 16 18 18 18 18 17
21 19 16 14 13 13 12 12 13 13 13 12 13 12 11 14 17 18 19 19 19 17
18 16 14 13 13 12 12 13 13 13 13 13 12 11 13 18 20 19 19 19 19 17
16 15 14 13 12 12 14 14 14 13 13 13 11 10 19 21 20 19 19 19 18 17
15 15 14 13 13 15 15 14 13 13 15 14 10 19 22 23 20 19 19 17 17 17
15 14 13 13 13 14 14 14 13 12 12 11 11 20 22 22 21 20 18 18 18 17
14 12 11 11 13 13 13 12 11 11 11 11 11 20 21 22 20 19 18 18 18 19
12 10 10 11 11 12 11 11 11 11 12 11 12 17 21 22 18 17 17 17 18 19
10 9 10 12 12 12 11 10 10 11 11 13 11 15 21 21 18 16 16 17 18 18
10 10 11 12 11 12 11 10 10 11 11 12 13 14 19 21 20 18 17 18 17 16

GFSNIL_sfc_30mbdewp_021.txt.gz
Dewpoint
42 36 31 30 27 25 25 25 23 21 21 20 19 19 19 20 19 18 19 20 21 19
38 35 30 27 26 26 25 23 21 20 18 17 17 17 17 16 16 17 18 20 21 21
35 31 29 28 27 25 23 20 19 18 18 17 16 16 16 16 16 17 18 19 19 20
32 30 28 26 24 22 19 19 18 17 16 15 15 15 14 14 16 17 18 19 19 19
30 27 26 23 21 19 18 17 16 15 14 14 14 13 12 13 15 17 18 18 19 18
25 24 21 19 18 17 16 15 14 14 14 13 14 13 12 12 15 17 18 19 18 18
23 20 18 17 16 16 15 15 15 15 14 14 13 13 12 17 20 20 19 19 19 18
20 19 17 17 16 16 16 15 15 14 14 14 12 10 19 21 20 19 18 18 18 17
19 17 17 16 16 17 16 15 14 14 16 17 11 19 23 24 21 19 18 18 17 17
18 17 17 18 18 17 15 14 14 13 12 12 12 19 22 23 22 20 19 18 18 18
18 19 19 19 16 15 14 13 12 11 12 12 13 18 20 23 21 17 17 17 18 17
18 14 15 14 13 13 12 11 11 11 12 11 10 16 20 22 19 16 16 16 16 18
13 13 13 13 13 12 11 11 10 12 11 11 11 12 18 21 19 16 17 17 17 17
13 13 14 13 12 11 10 10 10 10 10 10 11 13 16 19 20 19 19 18 18 18

GFSNIL_sfc_30mbdewp_027.txt.gz
Dewpoint
48 45 43 40 37 35 32 30 29 29 27 26 25 24 23 22 22 21 21 20 21 22
46 44 40 38 35 32 31 29 28 28 25 24 23 23 22 20 17 18 21 20 22 22
44 42 39 35 34 32 31 27 26 26 25 22 20 20 19 18 18 17 20 21 20 20
42 38 36 35 32 31 29 28 27 27 21 19 18 18 18 18 18 17 19 20 20 20
38 35 34 34 32 31 31 31 30 22 19 18 16 15 15 15 15 17 18 19 19 19
37 35 34 30 28 29 28 26 22 18 17 15 15 13 13 14 16 18 20 20 20 19
35 31 29 29 27 26 24 22 18 17 17 16 15 14 16 20 22 21 21 20 20 20
28 28 27 27 28 27 25 18 17 16 15 15 16 20 21 23 22 21 20 20 20 19
25 27 28 27 25 22 21 17 17 16 16 15 19 25 25 25 23 22 21 20 20 19
27 27 26 26 26 24 21 20 20 19 17 16 23 24 23 24 23 21 20 19 18 18
31 31 31 31 30 30 31 28 21 14 13 17 22 23 23 24 21 20 19 18 18 18
34 33 33 32 32 31 22 14 14 14 15 16 22 20 20 22 21 19 19 20 20 21
34 33 31 27 16 14 15 13 15 14 13 15 11 16 17 20 20 19 20 21 21 22
33 30 20 14 14 14 12 12 11 11 11 11 12 13 15 17 19 19 20 21 20 20

GFSNIL_sfc_30mbdewp_033.txt.gz
Dewpoint
58 57 55 53 53 51 49 47 42 41 38 37 34 31 28 25 24 21 20 19 19 19
57 55 54 52 51 50 47 44 41 39 35 35 33 30 28 25 24 22 21 21 22 22
54 54 52 49 48 44 43 42 39 36 34 33 31 29 27 25 23 21 22 23 22 22
51 49 47 46 43 41 41 40 38 34 32 29 27 26 24 23 21 20 21 22 21 20
47 46 45 45 42 40 39 38 35 31 28 28 26 25 23 22 23 25 26 26 21 20
46 45 44 43 40 37 36 32 30 30 30 30 30 30 31 30 29 24 22 21 20 20
43 43 41 39 36 34 33 33 34 34 32 32 32 32 31 30 27 22 21 22 21 21
39 38 35 34 34 34 32 31 32 31 31 31 31 31 32 31 29 25 23 23 21 21
33 32 32 31 30 30 29 29 30 29 29 30 30 33 29 25 23 23 23 23 21 19
32 31 32 33 33 33 32 31 30 31 32 33 34 34 33 32 29 25 19 18 18 18
33 33 34 33 32 32 32 31 31 32 32 32 32 33 33 30 23 19 19 19 19 20
35 34 33 33 33 33 32 32 32 32 32 32 32 33 31 22 19 18 19 20 21 23
35 34 33 33 32 32 33 32 32 31 29 30 26 23 24 22 19 18 18 20 21 22
34 33 33 32 32 31 28 20 16 14 15 12 16 16 17 17 19 19 20 20 20 20

GFSNIL_sfc_30mbdewp_036.txt.gz
Dewpoint
56 58 57 56 56 55 54 53 51 47 45 44 41 40 37 36 33 29 27 21 19 19
50 54 56 55 55 54 53 52 49 45 44 42 40 38 35 33 29 28 24 24 25 25
50 53 55 54 53 52 49 47 45 43 42 41 38 35 32 30 27 26 27 27 25 23
51 52 51 51 49 47 45 43 43 41 39 37 34 31 28 26 25 24 25 26 23 22
49 48 47 47 44 43 41 40 39 38 35 33 31 27 25 22 24 25 24 26 28 29
47 46 45 44 42 41 40 39 36 34 32 30 29 28 28 29 30 31 30 30 28 27
45 45 43 39 37 36 35 34 33 32 32 32 33 33 33 33 33 32 31 30 29 27
41 38 36 36 36 36 36 35 34 33 32 32 33 33 32 32 31 30 30 30 29 29
34 33 33 33 32 33 33 33 33 33 33 34 35 35 33 28 27 28 29 31 30 27
33 33 34 33 33 32 32 33 33 33 34 34 35 34 33 33 32 30 29 26 21 22
34 34 34 34 33 33 33 32 33 33 33 33 35 36 35 32 29 28 23 20 20 21
35 34 33 32 32 33 32 32 32 32 32 31 32 35 32 28 20 18 19 20 21 23
34 33 31 32 32 32 32 32 32 31 32 33 32 33 30 20 18 17 19 20 21 22
33 33 32 32 32 31 30 29 28 28 26 26 20 20 19 25 19 19 20 20 20 20

GFSNIL_sfc_30mbdewp_042.txt.gz
Dewpoint
45 44 45 50 54 55 55 58 59 58 59 58 58 58 57 54 52 48 46 44 41 34
47 48 48 48 49 52 54 55 57 58 57 57 57 55 55 53 51 50 48 46 40 35
49 50 51 51 52 52 52 53 55 55 56 56 54 52 51 50 50 48 46 41 36 31
47 48 49 51 51 51 52 52 53 53 53 52 51 49 48 47 45 42 37 33 32 29
46 47 48 48 49 49 49 49 49 49 48 48 47 46 44 39 37 34 33 33 32 33
44 46 46 46 46 45 44 44 43 44 43 42 41 40 37 33 33 33 33 33 33 33
40 41 41 41 40 39 40 39 38 37 36 35 33 31 31 32 33 33 33 33 32 32
37 38 38 37 37 37 37 36 36 35 34 33 33 33 34 33 33 33 33 33 33 33
35 35 35 35 35 36 36 36 36 36 36 36 36 36 35 34 33 33 32 31 31 33
35 35 35 35 36 36 36 37 37 37 38 38 38 38 36 35 33 32 31 31 30 31
34 34 34 34 33 33 34 33 34 35 35 36 37 37 35 33 31 30 30 30 29 27
34 33 33 32 32 32 32 31 31 32 32 32 33 34 33 31 30 28 27 27 26 24
34 33 32 32 31 32 32 31 32 32 32 33 31 30 27 24 22 20 20 21 22 22
34 33 33 32 32 32 31 31 31 30 29 30 30 28 25 21 18 18 19 18 16 16

GFSNIL_sfc_30mbdewp_045.txt.gz
Dewpoint
43 44 44 42 44 50 52 53 57 60 60 60 60 60 60 59 58 55 53 51 47 44
44 46 46 47 47 47 48 51 53 55 58 59 59 59 59 58 57 55 53 50 49 47
46 46 47 48 49 51 51 51 51 53 54 55 57 58 57 56 55 54 52 51 48 40
45 46 47 47 48 49 51 51 52 52 53 53 55 54 52 52 51 51 46 42 38 35
44 45 46 46 47 47 48 48 48 49 49 50 50 49 48 47 46 43 39 36 34 32
41 41 42 42 42 43 43 44 43 44 44 44 44 44 42 39 37 37 35 34 34 34
39 39 40 39 39 39 39 38 37 36 36 36 35 34 35 36 36 35 35 35 34 34
37 37 37 37 37 37 37 37 36 35 35 35 35 35 35 35 34 34 34 35 35 35
36 36 36 36 37 37 37 37 37 37 37 36 36 37 36 35 34 34 33 32 33 35
35 35 35 36 36 36 36 36 36 37 38 38 39 38 36 35 33 32 31 31 31 32
34 34 35 35 34 34 34 33 32 33 33 34 37 37 35 33 31 31 31 31 31 29
35 34 33 32 32 33 32 32 31 32 32 32 33 35 34 32 31 30 29 28 27 24
34 33 32 32 32 33 33 32 32 31 32 33 31 30 30 28 23 20 20 22 23 21
35 34 33 33 32 31 31 31 30 30 30 30 28 26 25 22 19 19 18 17 15 17

GFSNIL_sfc_30mbdewp_048.txt.gz
Dewpoint
44 45 46 46 46 46 47 49 53 58 59 60 60 61 61 61 60 59 56 54 52 48
46 47 47 48 49 51 51 52 53 53 57 59 60 58 60 60 59 59 57 55 55 50
45 47 47 47 48 49 50 51 51 52 53 55 57 58 58 58 57 57 55 54 52 49
44 45 46 47 47 47 48 48 49 49 50 51 53 54 55 54 53 53 50 49 48 42
41 42 42 42 42 42 44 44 44 45 46 47 47 49 49 47 47 47 44 41 40 37
39 39 40 39 39 39 39 38 37 37 37 38 39 41 41 41 40 39 39 38 37 36
37 37 37 38 38 37 37 37 36 35 35 36 36 36 37 37 37 37 36 37 37 36
37 37 37 37 37 37 37 37 37 36 36 36 36 36 36 35 35 35 35 35 35 36
36 36 36 36 36 37 37 38 38 38 38 37 38 37 36 35 34 34 33 32 33 35
35 35 35 35 35 34 34 35 35 36 36 36 37 37 36 34 32 32 32 32 32 32
34 34 35 34 34 34 34 33 32 33 33 35 36 37 36 33 31 31 31 31 31 30
34 34 33 32 32 33 32 31 31 31 32 32 34 35 34 32 30 29 29 29 26 25
34 32 32 33 32 33 32 31 30 31 30 29 28 28 28 28 27 24 24 25 23 20
34 33 32 32 32 31 31 29 29 30 30 29 26 27 26 23 21 19 18 17 15 21

GFSNIL_sfc_30mbdewp_051.txt.gz
Dewpoint
46 47 47 48 49 50 50 51 52 53 56 59 60 60 60 60 60 60 59 57 53 50
45 46 47 47 49 50 50 51 51 51 52 54 58 59 59 57 57 58 58 57 55 53
44 45 46 46 46 47 48 48 48 48 49 50 52 55 57 55 56 57 56 55 55 52
41 42 42 41 41 42 44 43 43 45 46 47 48 50 52 52 53 53 52 50 51 48
39 39 39 39 39 39 39 38 38 38 38 39 41 43 46 45 45 46 46 43 43 40
37 37 37 38 37 38 37 37 36 36 36 36 37 37 38 39 39 39 38 38 38 37
36 37 37 37 37 37 37 37 36 36 36 36 36 36 37 37 37 37 37 37 37 37
36 36 36 36 37 38 38 38 38 37 37 37 37 36 36 36 35 35 35 36 36 36
36 36 36 36 36 36 36 36 37 37 38 37 37 37 36 34 34 34 33 33 33 34
35 35 35 35 35 34 34 35 34 35 36 37 38 37 36 34 32 32 32 32 32 31
34 34 35 34 34 34 33 32 32 33 34 36 36 36 34 33 31 30 30 31 31 29
33 34 33 33 32 33 32 31 31 32 32 32 34 34 33 30 28 27 27 26 25 23
33 33 32 33 32 32 32 31 30 29 28 28 26 26 27 26 23 22 23 24 20 21
33 33 33 32 32 31 29 28 29 29 28 27 27 27 26 24 21 17 17 16 16 20

GFSNIL_sfc_30mbdewp_054.txt.gz
Dewpoint
47 47 47 48 49 50 50 51 51 51 51 54 58 59 59 59 58 58 58 58 57 54
45 46 47 47 48 48 48 48 48 48 49 50 52 55 57 58 56 56 56 56 56 55
42 42 42 42 42 43 44 43 44 45 47 47 48 50 52 54 54 53 54 54 54 54
40 40 39 39 39 39 39 38 39 40 41 41 43 44 46 47 47 49 48 46 47 45
38 38 38 38 38 38 37 37 37 37 37 37 38 39 40 41 41 42 41 41 41 40
37 37 37 37 37 37 37 36 36 36 36 37 37 38 38 39 39 38 38 38 38 37
36 37 37 37 38 38 37 37 37 37 37 37 37 36 36 37 36 36 36 36 36 37
36 37 37 37 37 37 37 37 38 38 37 37 36 37 35 35 35 34 34 35 36 38
36 36 36 36 36 36 36 36 36 36 37 36 36 36 36 34 34 34 33 33 33 35
35 35 35 36 35 34 34 35 35 35 37 37 37 37 35 34 32 32 31 31 31 31
35 35 35 34 34 33 33 33 33 34 35 36 36 35 34 33 30 30 29 29 27 25
34 34 34 33 32 32 32 32 32 31 30 28 29 29 29 26 25 24 24 23 23 21
35 34 33 33 32 32 31 29 28 27 26 28 26 27 26 24 21 21 21 20 18 23
34 33 33 32 31 29 28 28 29 28 27 26 26 26 25 24 21 17 17 17 17 19

GFSNIL_sfc_30mbdewp_057.txt.gz
Dewpoint
46 47 47 48 49 49 49 49 48 48 49 50 52 55 57 58 58 58 57 57 56 55
45 45 45 45 46 46 45 45 45 46 47 47 48 50 53 55 55 55 55 55 55 55
41 41 40 40 40 40 39 40 41 41 42 43 43 46 48 48 49 50 49 48 49 48
39 39 39 38 38 38 38 37 38 38 38 39 40 41 42 42 43 44 43 43 43 42
38 38 38 37 37 37 37 36 36 37 37 37 38 39 39 40 40 40 40 40 40 39
37 37 37 37 37 37 37 37 37 37 37 37 37 37 38 38 38 38 38 38 38 37
36 37 37 37 37 37 37 37 37 37 37 37 36 36 36 35 36 36 36 37 37 36
36 37 37 37 37 37 37 37 37 36 36 36 35 36 34 34 34 34 35 35 36 38
36 36 36 36 36 36 36 36 37 37 37 36 37 37 35 35 34 34 33 33 33 35
36 35 36 36 35 35 35 35 35 36 37 36 37 36 35 34 32 31 30 29 29 28
35 35 35 34 34 34 34 33 34 34 34 34 34 34 33 31 28 26 25 24 23 22
35 34 34 33 32 33 32 32 30 28 26 26 27 28 27 25 23 22 21 20 22 22
35 34 33 32 32 31 31 28 27 26 25 28 26 27 25 22 20 17 17 16 16 23
35 34 33 32 31 29 28 28 27 27 25 25 26 25 25 25 21 17 18 18 20 22

GFSNIL_sfc_30mbdewp_060.txt.gz
Dewpoint
46 47 47 48 48 47 47 47 46 46 47 48 49 50 54 57 58 58 57 56 56 55
43 44 43 43 44 43 42 42 42 44 44 44 45 48 50 53 53 54 53 54 54 54
40 40 40 40 39 39 38 38 39 39 40 41 41 43 45 46 48 49 47 48 48 47
39 39 38 38 38 38 37 37 37 38 38 38 39 40 41 41 42 42 42 42 41 41
38 38 37 37 37 37 36 36 37 37 37 37 38 38 39 39 39 39 39 39 38 38
37 37 37 37 37 37 37 37 37 37 37 36 36 37 37 37 37 37 37 37 37 37
36 37 37 37 37 37 37 37 36 36 36 36 35 35 36 36 36 36 36 37 38 36
36 37 37 37 37 37 37 37 37 36 36 36 36 35 34 35 35 35 35 35 36 38
36 36 36 36 36 36 36 37 37 37 37 37 36 36 36 35 34 33 33 33 33 31
36 36 36 36 35 35 35 36 36 36 36 36 36 35 35 33 31 27 26 26 25 25
35 35 35 35 34 34 34 34 34 33 31 32 33 32 31 28 24 22 22 21 20 22
35 35 34 33 33 33 32 31 29 26 25 26 27 28 27 24 21 20 19 18 22 24
35 35 33 33 32 32 31 28 26 26 25 29 25 26 24 21 18 15 16 16 18 25
35 34 33 32 31 29 28 27 26 26 24 24 26 24 25 26 19 18 18 19 20 22

GFSNIL_sfc_30mbdewp_063.txt.gz
Dewpoint
47 47 48 48 48 46 46 45 45 46 46 46 47 49 53 56 57 58 57 57 56 56
44 44 44 43 44 42 41 41 41 42 43 43 44 46 49 51 52 53 53 54 55 54
41 40 40 40 40 39 38 39 39 39 40 40 41 43 44 46 48 47 47 48 48 47
39 39 38 38 38 38 37 37 38 38 38 39 39 40 41 42 42 43 43 42 42 42
38 38 37 37 37 37 37 37 37 37 37 37 38 39 39 39 39 39 39 39 39 39
37 37 37 37 37 37 37 37 37 37 36 36 36 37 38 38 37 37 37 37 37 37
36 37 37 37 37 37 37 36 36 36 36 36 36 36 36 37 37 37 38 38 37 36
37 37 37 37 37 37 37 37 37 36 36 36 36 35 36 36 36 36 36 36 36 38
37 37 37 37 37 37 37 37 37 37 37 36 36 37 37 34 34 34 34 32 31 30
36 36 36 36 36 36 36 36 36 37 36 35 35 35 35 32 29 29 28 26 26 26
36 36 36 35 35 35 35 35 34 33 34 34 34 33 30 27 24 23 22 22 24 26
36 35 35 34 34 34 34 32 29 28 28 28 29 28 27 23 22 21 21 21 24 25
36 35 34 34 33 33 32 29 27 27 26 28 27 27 25 22 17 15 15 17 20 27
36 35 34 33 32 31 29 27 26 26 25 25 25 25 27 23 17 17 17 18 20 23

GFSNIL_sfc_30mbdewp_066.txt.gz
Dewpoint
47 47 47 48 48 48 48 47 46 46 46 46 46 48 51 54 54 56 58 58 58 57
46 46 46 46 46 45 43 42 42 43 43 44 44 46 48 51 53 54 55 55 56 55
43 43 43 43 43 42 41 41 41 41 41 41 42 43 45 47 49 50 50 50 50 48
41 41 41 41 41 40 39 39 39 40 40 40 40 41 42 44 45 45 45 45 44 43
40 40 40 39 39 39 39 38 39 39 39 39 39 40 40 41 41 42 42 42 42 41
39 39 39 38 38 38 38 38 38 38 37 37 38 39 39 39 40 40 39 39 39 39
38 38 38 38 38 38 38 38 37 37 37 37 37 37 38 38 38 39 39 38 37 37
38 38 38 38 38 38 37 37 37 37 37 37 36 37 37 38 37 37 37 36 36 38
38 38 38 38 38 37 38 38 37 37 37 37 36 38 37 36 35 35 34 33 32 31
37 37 37 37 37 37 37 37 37 37 36 36 36 37 36 34 34 34 33 32 32 29
37 37 37 36 36 36 36 36 36 36 36 36 35 34 31 29 29 28 27 28 29 28
37 37 36 36 35 35 35 34 33 33 33 33 32 30 27 25 24 26 25 23 22 24
37 36 36 35 34 34 33 31 30 30 31 30 28 28 26 23 17 13 13 15 22 27
36 36 36 35 34 33 31 30 31 30 29 28 27 25 25 21 13 12 14 15 16 20

GFSNIL_sfc_30mbdewp_069.txt.gz
Dewpoint
47 46 46 47 47 47 47 48 47 47 47 46 46 47 48 50 53 53 54 55 57 57
46 46 46 47 47 46 45 44 43 44 44 44 44 45 46 47 50 52 53 54 55 55
44 44 44 44 44 44 43 42 42 42 42 42 42 43 44 46 48 49 50 50 50 49
42 42 42 42 42 42 41 41 41 41 41 40 40 41 41 43 43 45 47 46 46 44
42 41 41 40 40 40 40 40 39 39 39 39 40 40 40 41 42 42 43 43 43 42
40 40 40 39 39 39 39 39 39 39 39 38 38 39 40 40 40 40 40 40 40 39
39 39 39 39 39 39 38 38 38 38 38 38 37 38 38 39 39 39 39 39 38 38
39 39 39 38 38 39 38 38 38 37 37 37 37 37 38 38 38 38 37 36 38 39
38 38 38 38 38 38 38 38 37 37 37 37 36 38 38 37 37 36 35 34 33 33
38 38 38 38 38 38 38 38 37 37 36 36 37 38 37 36 36 35 34 33 33 30
38 38 38 37 37 37 37 37 37 37 36 36 36 36 34 33 32 30 30 30 30 29
38 38 37 36 36 37 36 36 35 35 35 35 33 32 29 27 26 27 26 23 22 25
38 37 36 36 36 35 35 34 32 33 33 32 30 29 26 25 19 18 15 15 24 27
37 37 37 37 36 34 33 31 31 32 31 29 29 27 27 24 13 12 13 14 16 21

GFSNIL_sfc_30mbdewp_072.txt.gz
Dewpoint
47 47 47 48 48 48 47 48 46 47 47 46 46 46 47 48 50 53 53 52 54 56
47 47 47 47 47 46 45 43 42 44 44 44 44 44 45 46 48 50 51 52 52 53
45 45 45 45 44 44 43 42 42 42 42 42 42 42 42 44 46 47 49 49 49 49
43 43 43 43 42 42 41 41 41 41 40 40 40 41 41 42 42 43 46 46 46 45
42 42 41 41 41 40 40 40 39 40 39 40 40 40 40 40 41 42 43 43 44 43
41 41 40 40 39 39 39 39 39 39 39 38 38 39 39 40 40 40 39 39 39 39
40 40 39 39 39 39 39 38 38 38 38 38 37 38 38 39 39 39 39 39 39 39
39 39 39 39 39 39 39 38 38 38 38 37 37 37 38 38 38 38 36 37 39 39
39 39 39 39 38 38 38 38 38 38 37 37 36 38 38 38 38 36 35 34 33 34
39 38 39 38 38 38 37 38 38 37 37 36 38 39 38 38 36 35 34 33 31 29
39 38 38 38 37 37 37 37 37 37 36 36 37 37 37 36 33 32 31 30 30 28
38 38 38 37 37 36 37 37 36 37 37 35 34 34 34 30 28 26 24 23 24 26
38 38 37 37 37 36 36 35 35 34 35 35 33 32 28 26 25 22 20 19 25 27
38 38 37 37 37 35 35 34 33 32 32 31 30 29 27 25 16 13 14 15 17 25

GFSNIL_sfc_30mbdewp_075.txt.gz
Dewpoint
45 45 45 46 46 47 48 49 47 47 46 46 46 46 46 47 48 49 51 52 52 53
47 47 47 48 47 46 46 44 44 44 44 44 44 44 44 45 45 48 50 51 51 51
46 47 46 46 45 44 43 43 42 42 42 42 42 42 42 42 45 45 46 49 48 48
45 44 44 44 43 42 42 41 41 41 40 40 40 40 40 41 42 42 44 46 45 45
43 42 42 42 41 40 40 40 40 40 39 39 40 40 40 40 41 41 42 43 44 43
42 41 41 40 40 39 39 39 39 39 39 38 38 38 39 39 40 40 39 39 40 40
41 40 40 39 39 39 39 38 38 38 38 38 38 38 38 39 39 39 39 39 39 39
40 39 39 39 39 39 39 38 38 38 38 38 37 37 37 38 39 38 37 38 39 39
39 39 38 38 38 38 38 38 38 37 37 37 36 38 38 39 38 37 36 36 36 37
39 39 38 38 38 38 38 38 37 37 37 37 38 39 39 39 37 36 35 33 31 30
39 38 39 38 38 37 37 37 37 37 36 37 38 38 38 37 35 34 33 32 30 25
39 38 38 37 37 37 37 36 37 37 37 36 36 36 36 32 30 28 26 25 26 26
39 38 38 37 37 37 36 36 36 35 36 36 34 35 33 29 26 23 22 22 24 29
38 38 37 37 37 36 35 35 34 34 34 34 33 32 31 27 20 19 16 15 21 26

GFSNIL_sfc_30mbdewp_081.txt.gz
Dewpoint
60 59 57 56 55 54 53 52 51 49 48 48 47 46 46 46 46 47 47 47 48 50
47 53 52 51 51 52 51 49 48 46 46 45 45 44 44 44 44 44 45 47 48 50
46 47 47 47 47 47 46 45 45 44 43 43 42 42 42 42 42 43 44 45 46 47
47 47 46 46 45 44 43 43 43 42 41 41 41 41 40 40 40 41 41 42 43 45
45 45 45 44 43 42 42 41 41 40 40 40 40 40 39 39 40 40 40 40 42 43
43 43 43 42 41 41 40 40 39 39 39 39 39 38 38 38 39 39 39 39 39 40
42 42 41 40 40 39 39 39 39 39 39 38 38 38 38 38 38 38 38 38 38 38
41 41 40 39 39 38 38 38 38 38 38 38 37 37 37 37 37 38 39 38 38 38
41 40 39 39 38 38 37 37 37 37 37 37 37 38 39 39 38 38 38 37 38 38
40 39 39 38 38 37 37 37 37 37 37 36 36 38 39 39 39 38 37 37 36 33
40 39 38 38 37 37 37 37 37 37 37 36 36 38 39 39 37 36 36 35 33 31
40 39 38 37 37 37 37 36 36 37 37 37 36 38 39 38 35 35 34 33 31 27
40 39 38 37 37 36 36 36 36 36 37 37 37 37 38 38 33 32 31 27 25 29
40 39 38 37 37 36 36 36 36 36 36 36 37 36 37 38 30 29 27 25 23 24